Weather History for Knoxville, TN

Change the Weather History Date:

Tuesday, November 20, 2012

  Actual Average Record
Temperature  
Mean Temperature 51 °F 48 °F  
Max Temperature 65 °F 59 °F 80 °F (1906)
Min Temperature 37 °F 38 °F 13 °F (1914)
Degree Days  
Heating Degree Days 14 17  
Month to date heating degree days 341 275  
Since 1 July heating degree days 577 494  
Cooling Degree Days 0 0  
Month to date cooling degree days 0 0  
Year to date cooling degree days 1725 1523  
Moisture  
Dew Point 37 °F    
Average Humidity 64    
Maximum Humidity 92    
Minimum Humidity 36    
Precipitation  
Precipitation 0.00 in 0.15 in 0.95 in (1983)
Month to date precipitation 0.73 2.50  
Year to date precipitation 47.13 41.85  
Snow  
Snow 0.00 in 0.00 in - ()
Month to date snowfall 0.0 0.0  
Since 1 July snowfall 0.0 0.0  
Since 1 September snowfall 0.0 0.0  
Snow Depth 0.00 in    
Sea Level Pressure  
Sea Level Pressure 30.14 in    
Wind  
Wind Speed 1 mph (West)    
Max Wind Speed 8 mph    
Max Gust Speed 9 mph    
Visibility 10 miles    
Events      
T = Trace of Precipitation, MM = Missing Value Source: NWS Daily Summary

Daily Weather History Graph

Daily Weather History Graph

Search for Another Location

Airport:

Trip Planner

Search our weather history database for the weather conditions in past years. The results will help you decide how hot, cold, wet, or windy it might be!

Date:

Astronomy

Nov. 20, 2012 Rise Set
Actual Time 7:17 AM EST 5:25 PM EST
Civil Twilight 6:49 AM EST 5:53 PM EST
Nautical Twilight 6:18 AM EST 6:24 PM EST
Astronomical Twilight 5:48 AM EST 6:54 PM EST
Moon 12:58 PM EST No Moon Set
Length of Visible Light 11h 03m
Length of Day
10h 08m
Waxing Crescent, 51% of the Moon is Illuminated
Nov 20
Waxing Crescent
Nov 28
Full
Dec 6
Last Quarter
Dec 13
New
Dec 20
First Quarter

Hourly Weather History & Observations

Time (EST) Temp. Windchill Dew Point Humidity Pressure Visibility Wind Dir Wind Speed Gust Speed Precip Events Conditions
12:53 AM 39.9 °F - 36.0 °F 86% 30.19 in 10.0 mi Calm Calm - N/A   Clear
1:53 AM 42.1 °F - 37.0 °F 82% 30.18 in 10.0 mi Calm Calm - N/A   Clear
2:53 AM 39.9 °F - 36.0 °F 86% 30.18 in 10.0 mi Calm Calm - N/A   Clear
3:53 AM 39.9 °F - 36.0 °F 86% 30.17 in 10.0 mi Calm Calm - N/A   Clear
4:53 AM 39.9 °F 37.8 °F 36.0 °F 86% 30.17 in 10.0 mi NNW 3.5 mph - N/A   Clear
5:53 AM 39.9 °F - 37.0 °F 89% 30.17 in 10.0 mi Calm Calm - N/A   Mostly Cloudy
6:53 AM 41.0 °F 39.0 °F 36.0 °F 82% 30.17 in 10.0 mi WNW 3.5 mph - N/A   Mostly Cloudy
7:53 AM 39.0 °F 35.7 °F 36.0 °F 89% 30.19 in 10.0 mi North 4.6 mph - N/A   Scattered Clouds
8:53 AM 44.1 °F - 39.9 °F 85% 30.21 in 9.0 mi Calm Calm - N/A   Scattered Clouds
9:53 AM 48.9 °F - 41.0 °F 74% 30.20 in 10.0 mi Calm Calm - N/A   Mostly Cloudy
10:53 AM 54.0 °F - 41.0 °F 62% 30.19 in 10.0 mi Calm Calm - N/A   Partly Cloudy
11:53 AM 59.0 °F - 41.0 °F 51% 30.16 in 10.0 mi Calm Calm - N/A   Clear
12:53 PM 62.1 °F - 39.9 °F 44% 30.12 in 10.0 mi Variable 3.5 mph - N/A   Partly Cloudy
1:53 PM 64.0 °F - 37.9 °F 38% 30.09 in 10.0 mi Calm Calm - N/A   Clear
2:53 PM 64.0 °F - 37.0 °F 37% 30.08 in 10.0 mi SW 6.9 mph - N/A   Partly Cloudy
3:53 PM 63.0 °F - 36.0 °F 37% 30.06 in 10.0 mi South 3.5 mph - N/A   Clear
4:53 PM 63.0 °F - 36.0 °F 37% 30.06 in 10.0 mi Calm Calm - N/A   Partly Cloudy
5:53 PM 59.0 °F - 36.0 °F 42% 30.07 in 10.0 mi SE 3.5 mph - N/A   Scattered Clouds
6:53 PM 57.0 °F - 36.0 °F 45% 30.08 in 10.0 mi Calm Calm - N/A   Scattered Clouds
7:53 PM 55.9 °F - 36.0 °F 47% 30.09 in 10.0 mi Calm Calm - N/A   Clear
8:53 PM 54.0 °F - 37.0 °F 53% 30.10 in 10.0 mi Calm Calm - N/A   Mostly Cloudy
9:53 PM 52.0 °F - 37.9 °F 59% 30.11 in 10.0 mi Calm Calm - N/A   Overcast
10:53 PM 50.0 °F - 37.9 °F 63% 30.12 in 10.0 mi Calm Calm - N/A   Overcast
11:53 PM 50.0 °F - 37.9 °F 63% 30.11 in 10.0 mi Calm Calm - N/A   Overcast